Regional Weather Roundup
Issued by NWS Grand Forks, ND

Home | Current Version | Previous Version | Graphics & Text | Print | Product List | Glossary On
Versions: 1 2 3 4 5 6 7 8 9 10 11 12 13 14 15 16 17 18 19 20 21 22 23 24 25 26 27 28 29 30 31 32 33 34 35 36 37 38 39 40 41 42 43 44 45 46 47 48 49 50
000
ASUS43 KFGF 241910
RWRFGF
PRAIRIE TO PINES  WEATHER ROUNDUP
NATIONAL WEATHER SERVICE EASTERN NORTH DAKOTA/GRAND FORKS ND
200 PM CDT FRI MAR 24 2017

 **SATELLITE DATA USED TO AUGMENT SKY COVER AT AUTOMATED STATIONS**
 *****  WEATHER ACROSS EASTERN NORTH DAKOTA  *****

CITY           SKY/WX    TMP DP  RH WIND       PRES   REMARKS
GRAND FORKS    CLOUDY    36  28  73 N13       30.22R
GRAND FRKS AFB CLOUDY    34  27  76 N12       30.22R
DEVILS LAKE    CLOUDY    32  26  78 NE10      30.23R WCI  24
FARGO          CLOUDY    36  30  79 N16       30.19S
WAHPETON ARPT  MOCLDY    41  32  70 N18       30.14F
$$

 ***** WEATHER ACROSS CENTRAL AND WESTERN NORTH DAKOTA  *****

CITY           SKY/WX    TMP DP  RH WIND       PRES   REMARKS
BISMARCK       FAIR      43  32  65 E8        30.19S
MINOT          FAIR      38  28  67 E14       30.19F
JAMESTOWN      PTSUNNY   38  31  76 N9        30.18S
MINOT AFB      FAIR      35  27  72 SE14      30.19S
GARRISON         N/A     38  30  73 E9        30.16F
WILLISTON      FAIR      51  32  48 SE8       30.10F
DICKINSON      FAIR      52  33  48 SE10      30.09F
HETTINGER      FAIR      50  38  63 SE8       30.12F
$$

 *****  OTHER AIRPORT OBSERVATIONS IN OUR AREA  *****

CITY           SKY/WX    TMP DP  RH WIND       PRES   REMARKS
WALHALLA       NOT AVBL
GRAFTON AIRPOR   N/A     34  30  86 N13       30.25R WCI  25
VALLEY CITY AR MOCLDY    37  34  87 N14       30.20S
CANDO          NOT AVBL
CAVALIER APRT    N/A     34  28  80 N9        30.24R
GWINNER        CLEAR     45  36  70 MISG      30.16S
SHEYENNE NWR     N/A     41  29  63 N13       29.95S
ROLLA          CLOUDY    30  27  86 NE8       30.23R WCI  23
 ***** THE ABOVE OBSERVATIONS ARE NON NWS ARE NOT QUALITY
       CONTROLLED AND MAY MIS-REPORT RAIN FOR SNOW...
$$

  *****  WEATHER ACROSS NORTHERN MINNESOTA  *****

CITY           SKY/WX    TMP DP  RH WIND       PRES   REMARKS
FLAG ISLAND    CLOUDY    34  23  64 N9        30.19R
WARROAD        CLOUDY    36  27  69 NE6       30.20R
ROSEAU         CLOUDY    36  28  75 NE7       30.20R
HALLOCK        CLOUDY    36  27  69 N8        30.23R
THF RVR FALLS  CLOUDY   N/A N/A N/A N7        30.20R
BAUDETTE       CLOUDY    39  25  57 NE12      30.15R
WASKISH        CLOUDY    41  30  65 NW3       30.15R
CROOKSTON      CLOUDY    36  30  80 N12       30.21R
GREENBUSH NDAW   N/A     34  27  75 N7          N/A
$$
  *****  WEATHER ACROSS CENTRAL AND WEST MINNESOTA  *****

CITY           SKY/WX    TMP DP  RH WIND       PRES   REMARKS
FOSSTON        CLOUDY    37  30  75 N3        30.17S
BEMIDJI        CLOUDY    39  31  72 NE6       30.15R
PARK RAPIDS    PTSUNNY   41  29  62 N12       30.12R
ELBOW LAKE     CLOUDY    41  34  77 N13       30.11F
WADENA         PTSUNNY   39  32  75 N10G17    30.10F
DETROIT LAKES  FAIR      37  32  81 N12       30.14F
MOORHEAD       CLOUDY    36  30  80 N17       30.18F
FERGUS FALLS   FAIR      43  34  70 N17G23    30.15F
MORRIS MN      PTSUNNY   41  36  81 N15       30.10R
STAPLES        CLOUDY    39  32  75 N9        30.10F
$$
  *****  WEATHER ELSEWHERE ACROSS MINNESOTA  *****

CITY           SKY/WX    TMP DP  RH WIND       PRES   REMARKS
DULUTH         CLOUDY    37  34  89 N8        30.09R
INTRNTL FALLS  CLOUDY    38  26  62 N9        30.15R
ELY            CLOUDY    36  34  93 CALM      30.12R
CLOQUET        CLOUDY    37  34  87 N7        30.10R
WHEATON        CLOUDY    41  34  75 N16G22    30.16R
BRAINERD       CLOUDY    39  32  76 N12       30.10S
HIBBING        CLOUDY    36  33  89 N6        30.12R
ALEXANDRIA     CLOUDY    39  34  82 N14       30.10S
SAINT CLOUD    CLOUDY    39  34  82 N12G22    30.08S
MINNEAPOLIS    CLOUDY    44  35  70 NE10      30.06R
$$

  *****  WEATHER ACROSS SOUTH DAKOTA  *****

CITY           SKY/WX    TMP DP  RH WIND       PRES   REMARKS
SIOUX FALLS    CLOUDY    43  37  79 NE15      30.08R
BROOKINGS      CLOUDY    38  34  85 NE9       30.11R
WATERTOWN      CLOUDY    37  34  89 N17       30.09R
HURON          CLOUDY    46  37  71 N13       30.12R
SISSETON         N/A     40  35  83 NE17      30.13S
ABERDEEN       FAIR      41  30  65 N14       30.16R
MITCHELL       CLOUDY    46  38  73 N17       30.11R
PIERRE         FAIR      56  36  47 N12       30.10S
MOBRIDGE       FAIR      53  33  46 MISG      30.11S
RAPID CITY     PTSUNNY   56  34  43 N14G24    30.10S
$$

  *****  SOME WEATHER IN NEARBY STATES *****

CITY           SKY/WX    TMP DP  RH WIND       PRES   REMARKS
GLASGOW MT     FAIR      56  29  35 SE12      30.01F
GREAT FALLS MT FAIR      60  20  21 S21G28    29.87F
CHEYENNE WY    PTSUNNY   47  25  42 N23G36    30.12S
SCOTTSBLUFF NE FAIR      57  32  38 N22G29    30.11S
OMAHA NE       CLOUDY    47  42  83 N16       29.95R
DES MOINES IA  LGT RAIN  49  46  90 CALM      29.93F FOG
DAVENPORT IA   FAIR      76  41  28 SW17G29   29.89R
CHICAGO IL     FAIR      81  42  25 W23G32    29.88F
EAU CLAIRE WI  LGT RAIN  40  37  89 N10       30.02S
LA CROSSE WI   CLOUDY    44  41  89 N6        30.00R FOG
$$

  *****  SOME NATIONAL WEATHER *****

CITY           SKY/WX    TMP DP  RH WIND       PRES   REMARKS
LA GUARDIA NY  CLOUDY    50  29  44 S10       30.22F
RALEIGH NC     PTSUNNY   68  45  43 SW16      30.41F
ATLANTA GA     PTSUNNY   72  48  42 S13G18    30.35F
NEW ORLEANS LA PTSUNNY   79  65  62 S18G31    30.18F
OKLAHOMA CITY  FAIR      78  27  15 S25G33    29.71F
ALBUQUERQUE NM FAIR      61  25  25 NW21G30   30.05S
SALT LAKE CITY FAIR      53  32  44 S10       30.21F
LOS ANGELES CA FAIR      66  50  56 W13       30.24F
BOISE ID       LGT RAIN  48  40  73 SE12      30.04S
SEATTLE WA     PTSUNNY   53  44  71 S17       29.81S
$$

*** WEATHER ACROSS MANITOBA...SASKATCHEWAN AND ONTARIO ***
                ***ONTARIO***

CITY           SKY/WX    TMP DP  RH WIND       PRES   REMARKS
GERALDTON      PTSUNNY   30  18  59 N12G18    30.13R WCI  21
THUNDER BAY    PTSUNNY   39  32  75 NE9       30.11R
SIOUX LOOKOUT  CLOUDY    32  18  55 N5        30.18R
TORONTO        CLOUDY    57  46  67 W13       29.91F
BIG TROUT LK   SUNNY     12  -4  48 NW9       30.36R WCI   0
PICKLE LAKE    SUNNY     27   3  36 NE8       30.22R WCI  18
DRYDEN         CLOUDY    32  25  74 NE9G17    30.17R WCI  24
KENORA         NOT AVBL
$$
                *** MANITOBA***

CITY           SKY/WX    TMP DP  RH WIND       PRES   REMARKS
BRANDON        CLOUDY    30  23  74 E8        30.24S WCI  23
DAUPHIN        CLOUDY    30  23  74 E6        30.26S WCI  24
ISLAND LAKE    SUNNY     14   0  52 VRB5      30.37F WCI   6
PILOT MOUND      N/A     30  23  74 NE6         N/A  WCI  24
THE PAS        CLOUDY    16   5  62 SE10      30.29F WCI   3
THOMPSON       MOSUNNY   10 -11  37 SE6       30.38F WCI   1
WINNIPEG       CLOUDY    32  25  74 N12       30.26R WCI  23
LYNN LAKE      CLOUDY    10   1  67 SE12      30.26F WCI  -4
CHURCHILL      SUNNY     -4 -13  65 W9        30.44S WCI -20
GILLAM         SUNNY      5  -9  51 NW6       30.44F WCI  -6
$$
                ***SASKATCHEWAN***

CITY           SKY/WX    TMP DP  RH WIND       PRES   REMARKS
ESTEVAN        MOSUNNY   36  30  80 E16       30.14F
KINDERSLEY     PTSUNNY   45  34  65 SE23      29.90F
LLOYDMINSTER   CLOUDY    28  28 100 SE17      29.95F WCI  16
PRINCE ALBERT  PTSUNNY   32  21  64 SE7       30.12F
REGINA         PTSUNNY   39  32  75 SE17      30.07F
YORKTON        PTSUNNY   32  25  74 SE12      30.17F WCI  23
N. BATTLEFORD  SUNNY     36  27  69 E20       30.02F
LA RONGE       CLOUDY    30  21  69 SE12G18   30.13F WCI  21
SASKATOON      PTSUNNY   39  27  60 E10       30.07F
SWIFT CURRENT  SUNNY     52  30  43 S10       29.92F
$$
NOTE: THESE ARE AUTOMATED STATIONS WITH LIMITED QUALITY CONTROL
      "FAIR" INDICATES FEW OR NO CLOUDS BELOW 12,000 FEET WITH NO
      SIGNIFICANT WEATHER AND/OR OBSTRUCTIONS TO VISIBILITY.
      SKY/WX - SKY CONDITION AND SIGNIFICANT WEATHER.
      TMP - AIR TEMPERATURE.    DP   - DEWPOINT TEMPERATURE.
      RH  - RELATIVE HUMIDITY.  PRES - PRESSURE.
      HX  - HEAT INDEX.         WCI  - WIND CHILL INDEX.
$




USA.gov is the U.S. government's official web portal to all federal, state and local government web resources and services.